| time (UTC) | temp F | wind direction | speed MPH | gust MPH | rain 1hr in | rain 24hr in | rain mn in | humidity % | barometer mb |
| 20260505230509 | 49 | 320 | 0.0 | 3.0 | 0.05 | 0.34 | 0.34 | 99 | 1029.1 |
| 20260505230006 | 49 | 293 | 2.0 | 3.0 | 0.07 | 0.34 | 0.34 | 99 | 1029.1 |
| 20260505225503 | 49 | 304 | 1.0 | 2.0 | 0.09 | 0.34 | 0.34 | 99 | 1028.8 |
| 20260505224959 | 50 | 308 | 0.0 | 2.0 | 0.09 | 0.33 | 0.33 | 99 | 1028.4 |
| 20260505224456 | 50 | 314 | 2.0 | 5.0 | 0.07 | 0.32 | 0.32 | 99 | 1028.3 |
| 20260505223953 | 50 | 1 | 3.0 | 5.0 | 0.05 | 0.31 | 0.31 | 99 | 1028.5 |
| 20260505223450 | 51 | 2 | 2.0 | 5.0 | 0.12 | 0.31 | 0.31 | 99 | 1028.7 |
| 20260505222946 | 51 | 333 | 5.0 | 6.0 | 0.14 | 0.30 | 0.30 | 99 | 1028.8 |
| 20260505222442 | 51 | 269 | 4.0 | 9.0 | 0.09 | 0.29 | 0.29 | 99 | 1028.9 |
| 20260505221938 | 52 | 274 | 2.0 | 10.0 | 0.07 | 0.28 | 0.28 | 99 | 1028.8 |
| 20260505221436 | 52 | 266 | 5.0 | 7.0 | 0.07 | 0.27 | 0.27 | 99 | 1028.6 |
| 20260505220933 | 52 | 258 | 7.0 | 11.0 | 0.09 | 0.27 | 0.27 | 99 | 1028.5 |
| 20260505220430 | 52 | 265 | 4.0 | 11.0 | 0.09 | 0.26 | 0.26 | 99 | 1028.5 |
| 20260505215927 | 52 | 256 | 7.0 | 11.0 | 0.12 | 0.25 | 0.25 | 99 | 1028.6 |
| 20260505215425 | 52 | 255 | 8.0 | 9.0 | 0.21 | 0.24 | 0.24 | 99 | 1028.4 |
| 20260505214923 | 52 | 256 | 6.0 | 12.0 | 0.21 | 0.23 | 0.23 | 99 | 1028.5 |
| 20260505214421 | 52 | 267 | 7.0 | 12.0 | 0.12 | 0.20 | 0.20 | 99 | 1028.5 |
| 20260505213918 | 53 | 244 | 9.0 | 15.0 | 0.14 | 0.19 | 0.19 | 99 | 1028.6 |
| 20260505213415 | 53 | 266 | 7.0 | 17.0 | 0.19 | 0.18 | 0.18 | 99 | 1028.3 |
| 20260505212911 | 53 | 252 | 5.0 | 11.0 | 0.19 | 0.17 | 0.17 | 98 | 1028.5 |
| 20260505212408 | 53 | 244 | 6.0 | 9.0 | 0.19 | 0.15 | 0.15 | 98 | 1028.4 |
| 20260505211905 | 53 | 255 | 10.0 | 12.0 | 0.12 | 0.13 | 0.13 | 98 | 1028.2 |
| 20260505211402 | 53 | 305 | 9.0 | 14.0 | 0.12 | 0.12 | 0.12 | 98 | 1028.0 |
| 20260505210858 | 53 | 260 | 9.0 | 11.0 | 0.14 | 0.11 | 0.11 | 98 | 1028.2 |
| 20260505210356 | 54 | 248 | 12.0 | 15.0 | 0.14 | 0.10 | 0.10 | 97 | 1027.9 |
| 20260505205852 | 54 | 242 | 7.0 | 10.0 | 0.12 | 0.09 | 0.09 | 97 | 1028.0 |
| 20260505205351 | 54 | 246 | 10.0 | 11.0 | 0.09 | 0.08 | 0.08 | 97 | 1027.6 |
| 20260505204847 | 54 | 276 | 3.0 | 9.0 | 0.12 | 0.07 | 0.07 | 96 | 1027.8 |
| 20260505204345 | 54 | 300 | 2.0 | 7.0 | 0.12 | 0.06 | 0.06 | 96 | 1027.7 |
| 20260505203842 | 54 | 249 | 4.0 | 7.0 | 0.12 | 0.05 | 0.05 | 95 | 1027.7 |
| 20260505203338 | 54 | 253 | 10.0 | 11.0 | 0.14 | 0.04 | 0.04 | 94 | 1027.4 |
| 20260505202835 | 55 | 262 | 2.0 | 6.0 | 0.07 | 0.03 | 0.03 | 93 | 1027.3 |
| 20260505202331 | 55 | 261 | 3.0 | 9.0 | 0.07 | 0.02 | 0.02 | 92 | 1027.5 |
| 20260505201828 | 55 | 269 | 6.0 | 14.0 | 0.02 | 0.01 | 0.01 | 90 | 1027.2 |
| 20260505201325 | 55 | 260 | 4.0 | 19.0 | 0.00 | 0.01 | 0.01 | 89 | 1027.3 |
| 20260505200824 | 56 | 263 | 4.0 | 9.0 | 0.00 | 0.01 | 0.01 | 88 | 1027.3 |
| 20260505200320 | 56 | 253 | 4.0 | 14.0 | 0.00 | 0.01 | 0.01 | 87 | 1027.6 |
| 20260505195815 | 56 | 241 | 6.0 | 10.0 | 0.00 | 0.01 | 0.01 | 87 | 1027.6 |
| 20260505195313 | 56 | 253 | 8.0 | 15.0 | 0.00 | 0.01 | 0.01 | 87 | 1027.5 |
| 20260505194810 | 56 | 265 | 5.0 | 11.0 | 0.00 | 0.01 | 0.01 | 87 | 1027.7 |
| 20260505194307 | 56 | 287 | 6.0 | 13.0 | 0.00 | 0.01 | 0.01 | 86 | 1027.9 |
| 20260505193802 | 56 | 292 | 5.0 | 11.0 | 0.00 | 0.01 | 0.01 | 86 | 1027.6 |
| 20260505193300 | 57 | 264 | 5.0 | 13.0 | 0.00 | 0.01 | 0.01 | 85 | 1027.5 |
| 20260505192758 | 57 | 276 | 6.0 | 10.0 | 0.00 | 0.01 | 0.01 | 85 | 1027.6 |
| 20260505192256 | 57 | 255 | 9.0 | 20.0 | 0.00 | 0.01 | 0.01 | 85 | 1027.5 |
| 20260505191754 | 57 | 272 | 5.0 | 18.0 | 0.00 | 0.01 | 0.01 | 85 | 1027.6 |
| 20260505191252 | 57 | 311 | 7.0 | 16.0 | 0.00 | 0.01 | 0.01 | 85 | 1027.7 |
| 20260505190748 | 57 | 256 | 8.0 | 17.0 | 0.00 | 0.01 | 0.01 | 85 | 1027.3 |
| 20260505190243 | 57 | 281 | 10.0 | 19.0 | 0.00 | 0.01 | 0.01 | 84 | 1027.3 |
| 20260505185740 | 57 | 251 | 4.0 | 14.0 | 0.00 | 0.01 | 0.01 | 84 | 1027.4 |
| 20260505185236 | 56 | 266 | 6.0 | 13.0 | 0.00 | 0.01 | 0.01 | 84 | 1027.2 |
| 20260505184732 | 57 | 267 | 5.0 | 14.0 | 0.00 | 0.01 | 0.01 | 83 | 1027.7 |
| 20260505184230 | 57 | 254 | 13.0 | 19.0 | 0.00 | 0.01 | 0.01 | 83 | 1027.5 |
| 20260505183726 | 57 | 261 | 8.0 | 15.0 | 0.00 | 0.01 | 0.01 | 81 | 1027.4 |
| 20260505183224 | 58 | 282 | 4.0 | 16.0 | 0.00 | 0.01 | 0.01 | 81 | 1027.5 |
| 20260505182720 | 58 | 276 | 12.0 | 26.0 | 0.00 | 0.01 | 0.01 | 80 | 1027.6 |
| 20260505182217 | 59 | 220 | 13.0 | 20.0 | 0.00 | 0.01 | 0.01 | 79 | 1027.4 |
| 20260505181713 | 59 | 323 | 18.0 | 18.0 | 0.00 | 0.01 | 0.01 | 79 | 1027.5 |
| 20260505181211 | 58 | 251 | 12.0 | 18.0 | 0.00 | 0.01 | 0.01 | 80 | 1027.1 |
| 20260505180708 | 58 | 282 | 5.0 | 21.0 | 0.00 | 0.01 | 0.01 | 80 | 1027.4 |
| 20260505180204 | 58 | 311 | 5.0 | 25.0 | 0.00 | 0.01 | 0.01 | 81 | 1026.9 |
| 20260505175700 | 58 | 251 | 7.0 | 17.0 | 0.00 | 0.01 | 0.01 | 79 | 1027.2 |
| 20260505175157 | 58 | 305 | 5.0 | 15.0 | 0.00 | 0.01 | 0.01 | 80 | 1026.9 |
| 20260505174653 | 59 | 260 | 6.0 | 15.0 | 0.00 | 0.01 | 0.01 | 79 | 1026.8 |
| 20260505174149 | 58 | 260 | 7.0 | 16.0 | 0.00 | 0.01 | 0.01 | 80 | 1026.8 |
| 20260505173646 | 57 | 255 | 9.0 | 16.0 | 0.00 | 0.01 | 0.01 | 81 | 1026.8 |
| 20260505173143 | 56 | 242 | 5.0 | 14.0 | 0.00 | 0.01 | 0.01 | 82 | 1026.7 |
| 20260505172641 | 56 | 267 | 11.0 | 16.0 | 0.00 | 0.01 | 0.01 | 82 | 1026.7 |
| 20260505172138 | 56 | 260 | 6.0 | 23.0 | 0.00 | 0.01 | 0.01 | 82 | 1026.8 |
| 20260505171637 | 56 | 249 | 10.0 | 22.0 | 0.00 | 0.01 | 0.01 | 80 | 1026.6 |
| 20260505171135 | 55 | 293 | 8.0 | 19.0 | 0.00 | 0.01 | 0.01 | 81 | 1026.8 |
| 20260505170632 | 56 | 259 | 7.0 | 17.0 | 0.00 | 0.01 | 0.01 | 80 | 1026.8 |
| 20260505170128 | 57 | 265 | 11.0 | 18.0 | 0.00 | 0.01 | 0.01 | 79 | 1026.7 |
| 20260505165623 | 57 | 273 | 5.0 | 20.0 | 0.00 | 0.01 | 0.01 | 78 | 1026.6 |
| 20260505165120 | 58 | 262 | 13.0 | 20.0 | 0.00 | 0.01 | 0.01 | 77 | 1026.5 |
| 20260505164615 | 58 | 310 | 7.0 | 16.0 | 0.00 | 0.01 | 0.01 | 77 | 1026.1 |
| 20260505164113 | 59 | 273 | 10.0 | 13.0 | 0.00 | 0.01 | 0.01 | 75 | 1026.2 |
| 20260505163611 | 60 | 289 | 8.0 | 27.0 | 0.00 | 0.01 | 0.01 | 73 | 1026.3 |
| 20260505163108 | 63 | 262 | 10.0 | 12.0 | 0.00 | 0.01 | 0.01 | 69 | 1025.9 |
| 20260505162606 | 64 | 310 | 3.0 | 13.0 | 0.00 | 0.01 | 0.01 | 71 | 1025.7 |
| 20260505162103 | 63 | 245 | 7.0 | 16.0 | 0.00 | 0.01 | 0.01 | 72 | 1025.2 |
| 20260505161600 | 61 | 245 | 7.0 | 11.0 | 0.00 | 0.01 | 0.01 | 73 | 1025.7 |
| 20260505161057 | 58 | 266 | 5.0 | 14.0 | 0.00 | 0.01 | 0.01 | 77 | 1025.4 |
| 20260505160555 | 57 | 232 | 10.0 | 19.0 | 0.00 | 0.01 | 0.01 | 78 | 1025.7 |
| 20260505153032 | 61 | 291 | 9.0 | 13.0 | 0.00 | 0.01 | 0.01 | 73 | 1025.8 |
| 20260505152529 | 62 | 308 | 5.0 | 11.0 | 0.00 | 0.01 | 0.01 | 71 | 1025.9 |
| 20260505152024 | 63 | 295 | 5.0 | 15.0 | 0.00 | 0.01 | 0.01 | 70 | 1025.9 |
| 20260505151519 | 65 | 283 | 7.0 | 17.0 | 0.00 | 0.01 | 0.01 | 66 | 1025.2 |
| 20260505151017 | 67 | 303 | 5.0 | 9.0 | 0.00 | 0.01 | 0.01 | 64 | 1025.0 |
| 20260505150513 | 67 | 238 | 12.0 | 23.0 | 0.00 | 0.01 | 0.01 | 63 | 1025.3 |
| 20260505140438 | 68 | 265 | 6.0 | 17.0 | 0.00 | 0.01 | 0.01 | 61 | 1024.0 |
| 20260505124852 | 68 | 262 | 9.0 | 19.0 | 0.00 | 0.01 | 0.01 | 63 | 1023.8 |
| 20260505124349 | 67 | 259 | 17.0 | 25.0 | 0.00 | 0.01 | 0.01 | 63 | 1023.5 |
| 20260505123845 | 67 | 246 | 13.0 | 19.0 | 0.00 | 0.01 | 0.01 | 63 | 1023.2 |
| 20260505123342 | 67 | 256 | 7.0 | 20.0 | 0.00 | 0.01 | 0.01 | 63 | 1023.6 |
| 20260505122837 | 67 | 236 | 9.0 | 25.0 | 0.00 | 0.01 | 0.01 | 64 | 1023.2 |
| 20260505122335 | 67 | 251 | 7.0 | 17.0 | 0.00 | 0.01 | 0.01 | 64 | 1023.2 |
| 20260505121832 | 67 | 248 | 9.0 | 19.0 | 0.00 | 0.01 | 0.01 | 64 | 1023.1 |
| 20260505121329 | 67 | 232 | 13.0 | 27.0 | 0.00 | 0.01 | 0.01 | 64 | 1023.4 |
| 20260505120825 | 67 | 238 | 22.0 | 24.0 | 0.00 | 0.01 | 0.01 | 64 | 1023.3 |
| 20260505120321 | 67 | 229 | 7.0 | 16.0 | 0.00 | 0.01 | 0.01 | 65 | 1023.4 |
| 20260505115820 | 67 | 236 | 5.0 | 15.0 | 0.00 | 0.01 | 0.01 | 64 | 1023.4 |
| 20260505115317 | 67 | 244 | 10.0 | 23.0 | 0.00 | 0.01 | 0.01 | 64 | 1023.2 |
| 20260505114815 | 67 | 260 | 7.0 | 14.0 | 0.00 | 0.01 | 0.01 | 64 | 1023.4 |
| 20260505114311 | 67 | 249 | 7.0 | 20.0 | 0.00 | 0.01 | 0.01 | 64 | 1023.0 |
| 20260505113808 | 67 | 265 | 9.0 | 26.0 | 0.00 | 0.01 | 0.01 | 63 | 1023.0 |
| 20260505113304 | 67 | 251 | 10.0 | 19.0 | 0.00 | 0.01 | 0.01 | 63 | 1023.0 |
| 20260505112800 | 67 | 253 | 7.0 | 30.0 | 0.00 | 0.01 | 0.01 | 63 | 1023.0 |
| 20260505112258 | 67 | 249 | 9.0 | 16.0 | 0.00 | 0.01 | 0.01 | 64 | 1023.1 |
| 20260505111758 | 67 | 261 | 9.0 | 18.0 | 0.00 | 0.01 | 0.01 | 63 | 1022.7 |
| 20260505111254 | 67 | 246 | 12.0 | 28.0 | 0.00 | 0.01 | 0.01 | 63 | 1022.8 |
| 20260505110750 | 67 | 245 | 12.0 | 21.0 | 0.00 | 0.01 | 0.01 | 64 | 1022.8 |
| 20260505110248 | 67 | 237 | 7.0 | 20.0 | 0.00 | 0.01 | 0.01 | 64 | 1022.5 |
| 20260505101722 | 65 | 239 | 8.0 | 15.0 | 0.00 | 0.01 | 0.01 | 67 | 1022.1 |
| 20260505101218 | 66 | 249 | 8.0 | 20.0 | 0.00 | 0.01 | 0.01 | 67 | 1022.1 |
| 20260505100714 | 65 | 248 | 8.0 | 14.0 | 0.00 | 0.01 | 0.01 | 67 | 1022.1 |
| 20260505100211 | 66 | 227 | 7.0 | 21.0 | 0.00 | 0.01 | 0.01 | 67 | 1022.0 |
| 20260505095707 | 66 | 228 | 7.0 | 19.0 | 0.00 | 0.01 | 0.01 | 67 | 1021.9 |
| 20260505095205 | 66 | 225 | 5.0 | 22.0 | 0.00 | 0.01 | 0.01 | 67 | 1021.9 |
| 20260505094700 | 66 | 236 | 3.0 | 16.0 | 0.00 | 0.01 | 0.01 | 67 | 1022.0 |
| 20260505094157 | 66 | 224 | 7.0 | 20.0 | 0.00 | 0.01 | 0.01 | 66 | 1021.7 |
| 20260505093653 | 66 | 241 | 8.0 | 22.0 | 0.00 | 0.01 | 0.01 | 67 | 1021.6 |
| 20260505093151 | 66 | 254 | 13.0 | 18.0 | 0.00 | 0.01 | 0.01 | 67 | 1021.9 |
| 20260505092647 | 66 | 229 | 11.0 | 23.0 | 0.00 | 0.01 | 0.01 | 66 | 1021.8 |
| 20260505092146 | 66 | 238 | 14.0 | 17.0 | 0.00 | 0.01 | 0.01 | 67 | 1022.0 |
| 20260505091643 | 66 | 228 | 5.0 | 28.0 | 0.00 | 0.01 | 0.01 | 68 | 1021.8 |
| 20260505091141 | 66 | 243 | 12.0 | 20.0 | 0.00 | 0.01 | 0.01 | 67 | 1021.8 |
| 20260505090638 | 66 | 226 | 9.0 | 17.0 | 0.00 | 0.01 | 0.01 | 67 | 1022.0 |
| 20260505090136 | 66 | 236 | 6.0 | 25.0 | 0.00 | 0.01 | 0.01 | 67 | 1022.0 |
| 20260505085633 | 66 | 226 | 13.0 | 20.0 | 0.00 | 0.01 | 0.01 | 68 | 1021.6 |
| 20260505085132 | 65 | 232 | 9.0 | 20.0 | 0.00 | 0.01 | 0.01 | 68 | 1021.6 |
| 20260505084629 | 66 | 232 | 5.0 | 18.0 | 0.00 | 0.01 | 0.01 | 68 | 1021.8 |
| 20260505084127 | 65 | 240 | 7.0 | 15.0 | 0.00 | 0.01 | 0.01 | 69 | 1021.7 |
| 20260505083624 | 66 | 252 | 6.0 | 15.0 | 0.00 | 0.01 | 0.01 | 68 | 1021.9 |
| 20260505083121 | 66 | 229 | 4.0 | 14.0 | 0.00 | 0.01 | 0.01 | 68 | 1021.6 |
| 20260505082616 | 66 | 204 | 3.0 | 15.0 | 0.00 | 0.01 | 0.01 | 68 | 1021.7 |
| 20260505082114 | 66 | 225 | 7.0 | 13.0 | 0.00 | 0.01 | 0.01 | 68 | 1021.8 |
| 20260505081610 | 66 | 234 | 8.0 | 14.0 | 0.00 | 0.01 | 0.01 | 68 | 1021.9 |
| 20260505081108 | 66 | 223 | 7.0 | 17.0 | 0.00 | 0.01 | 0.01 | 67 | 1021.7 |
| 20260505080603 | 66 | 220 | 6.0 | 16.0 | 0.00 | 0.01 | 0.01 | 68 | 1021.8 |
| 20260505080100 | 66 | 215 | 7.0 | 12.0 | 0.00 | 0.01 | 0.01 | 68 | 1021.6 |
| 20260505075556 | 66 | 198 | 16.0 | 17.0 | 0.00 | 0.01 | 0.01 | 68 | 1021.8 |
| 20260505075053 | 66 | 235 | 5.0 | 13.0 | 0.00 | 0.01 | 0.01 | 68 | 1021.7 |
| 20260505074550 | 66 | 244 | 5.0 | 15.0 | 0.00 | 0.01 | 0.01 | 67 | 1021.7 |
| 20260505074047 | 66 | 205 | 9.0 | 15.0 | 0.00 | 0.01 | 0.01 | 68 | 1021.8 |
| 20260505073544 | 66 | 253 | 9.0 | 26.0 | 0.00 | 0.01 | 0.01 | 67 | 1021.7 |
| 20260505073043 | 66 | 232 | 11.0 | 17.0 | 0.00 | 0.01 | 0.01 | 68 | 1021.6 |
| 20260505072538 | 66 | 233 | 4.0 | 15.0 | 0.00 | 0.01 | 0.01 | 68 | 1021.5 |
| 20260505072035 | 66 | 229 | 8.0 | 15.0 | 0.00 | 0.01 | 0.01 | 67 | 1021.8 |
| 20260505071535 | 67 | 227 | 7.0 | 16.0 | 0.00 | 0.01 | 0.01 | 66 | 1022.0 |
| 20260505071034 | 67 | 237 | 14.0 | 28.0 | 0.00 | 0.01 | 0.01 | 64 | 1022.0 |
| 20260505070531 | 66 | 229 | 11.0 | 19.0 | 0.00 | 0.01 | 0.01 | 65 | 1022.1 |
| 20260505070027 | 66 | 228 | 5.0 | 17.0 | 0.00 | 0.01 | 0.01 | 65 | 1022.1 |
| 20260505065523 | 66 | 236 | 23.0 | 23.0 | 0.00 | 0.01 | 0.01 | 65 | 1022.1 |
| 20260505065020 | 67 | 246 | 15.0 | 32.0 | 0.00 | 0.01 | 0.01 | 65 | 1022.4 |
| 20260505064517 | 66 | 239 | 5.0 | 15.0 | 0.00 | 0.01 | 0.01 | 66 | 1022.3 |
| 20260505064015 | 65 | 240 | 10.0 | 17.0 | 0.00 | 0.01 | 0.01 | 68 | 1022.4 |
| 20260505063512 | 65 | 230 | 7.0 | 19.0 | 0.00 | 0.01 | 0.01 | 69 | 1022.6 |
| 20260505063008 | 64 | 215 | 7.0 | 22.0 | 0.00 | 0.01 | 0.01 | 71 | 1022.4 |
| 20260505062505 | 62 | 260 | 9.0 | 14.0 | 0.02 | 0.01 | 0.01 | 75 | 1022.5 |
| 20260505062002 | 62 | 251 | 6.0 | 10.0 | 0.02 | 0.01 | 0.01 | 77 | 1022.6 |
| 20260505061500 | 60 | 129 | 6.0 | 13.0 | 0.00 | 0.00 | 0.00 | 82 | 1022.4 |
| 20260505060957 | 57 | 210 | 2.0 | 4.0 | 0.00 | 0.00 | 0.00 | 88 | 1023.0 |
| 20260505060454 | 57 | 0 | 0.0 | 2.0 | 0.00 | 0.00 | 0.00 | 88 | 1023.0 |
| 20260505055950 | 57 | 98 | 3.0 | 3.0 | 0.00 | 0.00 | 0.00 | 88 | 1022.7 |
| 20260505055446 | 57 | 102 | 2.0 | 2.0 | 0.00 | 0.00 | 0.00 | 88 | 1023.2 |
| 20260505054943 | 58 | 19 | 0.0 | 3.0 | 0.00 | 0.00 | 0.00 | 87 | 1023.2 |
| 20260505054441 | 58 | 34 | 2.0 | 2.0 | 0.00 | 0.00 | 0.00 | 86 | 1023.3 |
| 20260505053938 | 58 | 49 | 1.0 | 2.0 | 0.00 | 0.00 | 0.00 | 86 | 1023.3 |
| 20260505053435 | 58 | 37 | 0.0 | 1.0 | 0.00 | 0.00 | 0.00 | 85 | 1023.4 |
| 20260505052932 | 59 | 20 | 2.0 | 2.0 | 0.00 | 0.00 | 0.00 | 84 | 1023.7 |
| 20260505052429 | 59 | 2 | 1.0 | 2.0 | 0.00 | 0.00 | 0.00 | 82 | 1023.7 |
| 20260505051926 | 59 | 347 | 1.0 | 2.0 | 0.00 | 0.00 | 0.00 | 81 | 1023.6 |
| 20260505051423 | 60 | 298 | 1.0 | 2.0 | 0.00 | 0.00 | 0.00 | 81 | 1023.6 |
| 20260505050921 | 60 | 270 | 2.0 | 5.0 | 0.00 | 0.00 | 0.00 | 79 | 1023.6 |
| 20260505050420 | 60 | 282 | 3.0 | 6.0 | 0.00 | 0.00 | 0.00 | 80 | 1023.7 |
| 20260505041347 | 62 | 256 | 10.0 | 12.0 | 0.00 | 0.00 | 0.00 | 68 | 1024.3 |
| 20260505040844 | 64 | 272 | 6.0 | 22.0 | 0.00 | 0.00 | 0.00 | 66 | 1024.1 |
| 20260505040342 | 66 | 293 | 6.0 | 17.0 | 0.00 | 0.00 | 0.00 | 63 | 1024.2 |
| 20260505035838 | 67 | 271 | 13.0 | 24.0 | 0.00 | 0.00 | 0.00 | 61 | 1023.7 |
| 20260505035334 | 67 | 224 | 15.0 | 21.0 | 0.00 | 0.00 | 0.00 | 63 | 1023.6 |
| 20260505034831 | 66 | 243 | 14.0 | 18.0 | 0.00 | 0.00 | 0.00 | 64 | 1023.3 |
| 20260505034328 | 66 | 238 | 8.0 | 15.0 | 0.00 | 0.00 | 0.00 | 67 | 1023.4 |
| 20260505033825 | 65 | 226 | 4.0 | 20.0 | 0.00 | 0.00 | 0.00 | 68 | 1023.2 |
| 20260505033322 | 65 | 286 | 7.0 | 18.0 | 0.00 | 0.00 | 0.00 | 68 | 1023.1 |
| 20260505032820 | 65 | 227 | 11.0 | 20.0 | 0.00 | 0.00 | 0.00 | 68 | 1023.0 |
| 20260505032316 | 65 | 227 | 9.0 | 21.0 | 0.00 | 0.00 | 0.00 | 67 | 1022.8 |
| 20260505031814 | 65 | 213 | 9.0 | 16.0 | 0.00 | 0.00 | 0.00 | 68 | 1023.0 |
| 20260505031310 | 65 | 200 | 4.0 | 22.0 | 0.00 | 0.00 | 0.00 | 68 | 1022.9 |
| 20260505030807 | 65 | 218 | 7.0 | 17.0 | 0.00 | 0.00 | 0.00 | 69 | 1023.0 |
| 20260505030303 | 65 | 262 | 4.0 | 16.0 | 0.00 | 0.00 | 0.00 | 69 | 1023.2 |
| 20260505025758 | 65 | 215 | 4.0 | 25.0 | 0.00 | 0.00 | 0.00 | 69 | 1023.1 |
| 20260505025257 | 65 | 219 | 9.0 | 19.0 | 0.00 | 0.00 | 0.00 | 68 | 1023.0 |
| 20260505024755 | 65 | 218 | 6.0 | 15.0 | 0.00 | 0.00 | 0.00 | 68 | 1022.8 |
| 20260505024252 | 64 | 214 | 14.0 | 14.0 | 0.00 | 0.00 | 0.00 | 69 | 1023.1 |
| 20260505023749 | 65 | 194 | 5.0 | 19.0 | 0.00 | 0.00 | 0.00 | 68 | 1023.1 |
| 20260505023246 | 64 | 211 | 3.0 | 15.0 | 0.00 | 0.00 | 0.00 | 71 | 1023.2 |
| 20260505022743 | 63 | 215 | 5.0 | 17.0 | 0.00 | 0.00 | 0.00 | 73 | 1023.3 |
| 20260505022240 | 63 | 220 | 4.0 | 12.0 | 0.00 | 0.00 | 0.00 | 75 | 1023.3 |
| 20260505021737 | 64 | 209 | 5.0 | 11.0 | 0.00 | 0.00 | 0.00 | 73 | 1023.3 |
| 20260505021234 | 64 | 225 | 7.0 | 17.0 | 0.00 | 0.00 | 0.00 | 71 | 1023.3 |
| 20260505020729 | 64 | 229 | 5.0 | 10.0 | 0.00 | 0.00 | 0.00 | 70 | 1023.3 |
| 20260505020225 | 64 | 240 | 4.0 | 13.0 | 0.00 | 0.00 | 0.00 | 68 | 1023.6 |
| 20260505015723 | 65 | 245 | 3.0 | 12.0 | 0.00 | 0.00 | 0.00 | 68 | 1023.6 |
| 20260505015219 | 65 | 251 | 8.0 | 12.0 | 0.00 | 0.00 | 0.00 | 67 | 1023.6 |
| 20260505014716 | 64 | 226 | 5.0 | 8.0 | 0.00 | 0.00 | 0.00 | 69 | 1023.6 |
| 20260505014214 | 64 | 250 | 3.0 | 8.0 | 0.00 | 0.00 | 0.00 | 69 | 1023.6 |
| 20260505013710 | 65 | 242 | 4.0 | 7.0 | 0.00 | 0.00 | 0.00 | 67 | 1023.4 |
| 20260505013208 | 66 | 247 | 8.0 | 11.0 | 0.00 | 0.00 | 0.00 | 65 | 1023.6 |
| 20260505012706 | 66 | 258 | 10.0 | 13.0 | 0.00 | 0.00 | 0.00 | 64 | 1023.5 |
| 20260505012203 | 66 | 236 | 19.0 | 20.0 | 0.00 | 0.00 | 0.00 | 63 | 1023.5 |
| 20260505011658 | 67 | 216 | 4.0 | 19.0 | 0.00 | 0.00 | 0.00 | 61 | 1023.3 |
| 20260505011156 | 68 | 246 | 22.0 | 26.0 | 0.00 | 0.00 | 0.00 | 59 | 1023.3 |
| 20260505010651 | 68 | 266 | 7.0 | 22.0 | 0.00 | 0.00 | 0.00 | 55 | 1023.5 |
| 20260505010148 | 69 | 228 | 10.0 | 10.0 | 0.00 | 0.00 | 0.00 | 51 | 1023.0 |
| 20260505005644 | 68 | 248 | 7.0 | 9.0 | 0.00 | 0.00 | 0.00 | 51 | 1023.2 |
| 20260505005141 | 68 | 219 | 3.0 | 5.0 | 0.00 | 0.00 | 0.00 | 51 | 1023.0 |
| 20260505004638 | 68 | 241 | 4.0 | 6.0 | 0.00 | 0.00 | 0.00 | 51 | 1023.1 |
| 20260505004134 | 67 | 248 | 4.0 | 6.0 | 0.00 | 0.00 | 0.00 | 52 | 1023.2 |
| 20260505003632 | 66 | 252 | 4.0 | 5.0 | 0.00 | 0.00 | 0.00 | 52 | 1023.3 |
| 20260505003129 | 67 | 260 | 3.0 | 5.0 | 0.00 | 0.00 | 0.00 | 51 | 1023.0 |
| 20260505002625 | 66 | 234 | 3.0 | 9.0 | 0.00 | 0.00 | 0.00 | 52 | 1022.5 |
| 20260505002124 | 64 | 224 | 3.0 | 4.0 | 0.00 | 0.00 | 0.00 | 56 | 1022.6 |
| 20260505001620 | 64 | 195 | 0.0 | 3.0 | 0.00 | 0.00 | 0.00 | 55 | 1022.8 |
| 20260505001118 | 64 | 230 | 0.0 | 2.0 | 0.00 | 0.00 | 0.00 | 55 | 1022.9 |
| 20260505000615 | 64 | 246 | 0.0 | 3.0 | 0.00 | 0.00 | 0.00 | 55 | 1023.0 |
| 20260505000113 | 64 | 325 | 2.0 | 3.0 | 0.00 | 0.00 | 0.00 | 55 | 1023.0 |
| 20260504235609 | 65 | 261 | 1.0 | 4.0 | 0.00 | 0.00 | 0.00 | 53 | 1023.3 |
| 20260504235106 | 64 | 254 | 2.0 | 5.0 | 0.00 | 0.00 | 0.00 | 53 | 1023.2 |
| 20260504234603 | 64 | 277 | 2.0 | 5.0 | 0.00 | 0.00 | 0.00 | 53 | 1023.2 |
| 20260504234100 | 64 | 252 | 3.0 | 5.0 | 0.00 | 0.00 | 0.00 | 52 | 1023.2 |
| 20260504233555 | 65 | 303 | 3.0 | 5.0 | 0.00 | 0.00 | 0.00 | 51 | 1023.4 |
| 20260504233052 | 66 | 313 | 2.0 | 5.0 | 0.00 | 0.00 | 0.00 | 50 | 1023.4 |
| 20260504232549 | 67 | 264 | 2.0 | 4.0 | 0.00 | 0.00 | 0.00 | 49 | 1023.4 |
| 20260504232047 | 67 | 267 | 3.0 | 6.0 | 0.00 | 0.00 | 0.00 | 48 | 1023.1 |
| 20260504231543 | 67 | 290 | 4.0 | 9.0 | 0.00 | 0.00 | 0.00 | 47 | 1023.5 |
| 20260504231039 | 68 | 288 | 4.0 | 7.0 | 0.00 | 0.00 | 0.00 | 46 | 1023.3 |